Home   Weather   Leuven   Past weeks

Flag for Belgium Past Weather in Leuven, Belgium — Yesterday and Last 2 Weeks

Now
63 °F

Clear.


Feels Like: 63 °F
Forecast: 53 / 61 °F
Wind: 10 mph from South

Location: Brussels National Airport

Current Time: Oct 20, 2017 at 1:55:26 am

Latest Report: Oct 20, 2017 at 1:20 am


Visibility: 10 mi

Pressure: 29.74 "Hg

Humidity: 68%

Dew Point: 52 °F

Location of LeuvenLocation

Past Weather in Leuven — Graph

°F

Leuven Temperature Yesterday

Maximum temperature yesterday: 70 °F (at 3:50 pm)
Minimum temperature yesterday: 50 °F (at 7:20 am)
Average temperature yesterday: 61 °F

High & Low Weather Summary for the Past Weeks

 TemperatureHumidityPressure
High77 °F (Oct 16, 2:20 pm)100% (Oct 8, 12:20 am)30.33 "Hg (Oct 8, 12:20 am)
Low48 °F (Oct 5, 11:50 pm)11% (Oct 5, 1:20 pm)29.74 "Hg (Oct 19, 4:20 pm)
Average57 °F82%30.09 "Hg
* Reported Oct 5 12:20 am — Oct 20 12:20 am, Leuven. Weather by CustomWeather, © 2017

Note: Actual official high and low records may vary slightly from our data, if they occured in-between our weather recording intervals... More about our weather records

Advertising

Leuven Weather History for the Previous 24 Hours

Scroll right to see more
 ConditionsComfort  
Time TempWeatherWind HumidityBarometerVisibility
12:20 am
Fri, Oct 20
63 °FClear.8 mph68%29.74 "Hg10 mi
11:50 pm
Thu, Oct 19
64 °FClear.8 mph64%29.74 "Hg10 mi
11:20 pm64 °FClear.10 mph68%29.74 "Hg10 mi
10:20 pm64 °FClear.9 mph68%29.74 "Hg10 mi
9:50 pm64 °FClear.9 mph73%29.74 "Hg10 mi
9:20 pm64 °FClear.8 mph73%29.74 "Hg10 mi
8:50 pm64 °FClear.7 mph73%29.74 "Hg10 mi
8:20 pm66 °FPassing clouds.8 mph73%29.74 "HgN/A
7:20 pm68 °FPassing clouds.7 mph64%29.77 "HgN/A
6:50 pm68 °FPassing clouds.8 mph64%29.77 "HgN/A
6:20 pm68 °FPassing clouds.12 mph64%29.74 "HgN/A
5:50 pm68 °FPassing clouds.9 mph64%29.74 "HgN/A
5:20 pm70 °FScattered clouds.14 mph57%29.77 "HgN/A
4:50 pm70 °FPassing clouds.13 mph60%29.74 "HgN/A
4:20 pm70 °FSunny.9 mph64%29.74 "Hg10 mi
3:50 pm70 °FSunny.9 mph64%29.77 "Hg10 mi
3:20 pm66 °FSunny.8 mph68%29.77 "Hg10 mi
2:50 pm66 °FPassing clouds.12 mph68%29.77 "HgN/A
2:20 pm64 °FSunny.8 mph73%29.77 "Hg10 mi
1:50 pm66 °FSunny.13 mph68%29.80 "Hg10 mi
1:20 pm66 °FSunny.10 mph68%29.80 "Hg10 mi
12:50 pm64 °FSunny.12 mph68%29.83 "Hg10 mi
12:20 pm64 °FPassing clouds.10 mph68%29.83 "HgN/A
11:50 am64 °FSunny.8 mph73%29.83 "Hg10 mi
11:20 am61 °FSunny.9 mph77%29.83 "Hg10 mi
10:50 am61 °FSunny.8 mph72%29.83 "Hg10 mi
10:20 am59 °FSunny.8 mph77%29.83 "Hg10 mi
9:50 am57 °FSunny.6 mph82%29.83 "Hg10 mi
9:20 am55 °FSunny.6 mph82%29.83 "Hg10 mi
8:50 am54 °FSunny.7 mph88%29.83 "Hg10 mi
8:20 am54 °FSunny.7 mph88%29.83 "Hg10 mi
7:50 am52 °FClear.6 mph94%29.83 "Hg10 mi
7:20 am50 °FClear.3 mph94%29.83 "Hg10 mi
6:20 am52 °FClear.5 mph88%29.83 "Hg10 mi
5:50 am52 °FClear.6 mph94%29.83 "Hg10 mi
5:20 am52 °FClear.5 mph94%29.86 "Hg10 mi
4:50 am52 °FClear.1 mph94%29.86 "Hg10 mi
4:20 am54 °FClear.5 mph88%29.86 "Hg10 mi
3:50 am54 °FClear.6 mph94%29.86 "Hg10 mi
3:20 am54 °FClear.5 mph88%29.86 "Hg10 mi
2:50 am55 °FClear.6 mph88%29.89 "Hg10 mi
2:20 am55 °FClear.6 mph88%29.89 "Hg10 mi
1:50 am55 °FClear.6 mph88%29.89 "Hg10 mi
1:20 am55 °FClear.6 mph88%29.89 "Hg10 mi
Weather by CustomWeather, © 2017

See weather overview